Weather History for Casper, WY

Change the Weather History Date:

Saturday, January 7, 2012

  Actual Average Record
Temperature  
Mean Temperature 24 °F 25 °F  
Max Temperature 34 °F 35 °F 53 °F (2006)
Min Temperature 13 °F 14 °F -23 °F (1973)
Degree Days  
Heating Degree Days 41 40  
Month to date heating degree days 243 285  
Since 1 July heating degree days 3143 3414  
Cooling Degree Days 0 0  
Month to date cooling degree days 0 0  
Year to date cooling degree days 0 0  
Moisture  
Dew Point 16 °F    
Average Humidity 68    
Maximum Humidity 84    
Minimum Humidity 51    
Precipitation  
Precipitation 0.00 in 0.02 in 0.14 in (1962)
Month to date precipitation 0.00 0.12  
Year to date precipitation 0.00 0.12  
Snow  
Snow 0.00 in 0.30 in - ()
Month to date snowfall 0.0 2.3  
Since 1 July snowfall 26.7 32.8  
Snow Depth 0.00 in    
Sea Level Pressure  
Sea Level Pressure 30.14 in    
Wind  
Wind Speed 2 mph (NW)    
Max Wind Speed 5 mph    
Max Gust Speed -    
Visibility 10 miles    
Events      
T = Trace of Precipitation, MM = Missing Value Source: NWS Daily Summary

Daily Weather History Graph

Daily Weather History Graph

Search for Another Location

Airport:

Trip Planner

Search our weather history database for the weather conditions in past years. The results will help you decide how hot, cold, wet, or windy it might be!

Date:

Astronomy

Jan. 07, 2012 Rise Set
Actual Time 7:36 AM MST 4:47 PM MST
Civil Twilight 7:04 AM MST 5:19 PM MST
Nautical Twilight 6:29 AM MST 5:54 PM MST
Astronomical Twilight 5:55 AM MST 6:29 PM MST
Moon 3:33 PM MST (1/7) 6:10 AM MST (1/7)
Length of Visible Light 10h 14m
Length of Day
9h 10m
Waxing Gibbous, 98% of the Moon is Illuminated
Jan 7
Waxing Gibbous
Jan 9
Full
Jan 16
Last Quarter
Jan 23
New
Jan 30
First Quarter

Hourly Weather History & Observations

Time (MST) Temp. Windchill Dew Point Humidity Pressure Visibility Wind Dir Wind Speed Gust Speed Precip Events Conditions
12:53 AM 21.0 °F 16.2 °F 16.0 °F 81% 30.02 in 10.0 mi NW 3.5 mph - N/A   Clear
1:53 AM 21.9 °F 15.7 °F 17.1 °F 82% 30.00 in 10.0 mi North 4.6 mph - N/A   Clear
2:53 AM 19.9 °F 14.9 °F 16.0 °F 85% 30.01 in 10.0 mi West 3.5 mph - N/A   Clear
3:53 AM 21.0 °F 14.6 °F 17.1 °F 85% 30.01 in 10.0 mi NE 4.6 mph - N/A   Clear
4:53 AM 19.0 °F - 16.0 °F 88% 30.06 in 10.0 mi Calm Calm - N/A   Partly Cloudy
5:53 AM 21.0 °F 16.2 °F 16.0 °F 81% 30.06 in 10.0 mi West 3.5 mph - N/A   Clear
6:53 AM 19.9 °F 14.9 °F 16.0 °F 85% 30.08 in 10.0 mi WSW 3.5 mph - N/A   Overcast
7:53 AM 19.9 °F - 16.0 °F 85% 30.12 in 10.0 mi Calm Calm - N/A   Clear
8:53 AM 21.9 °F - 18.0 °F 85% 30.12 in 10.0 mi Calm Calm - N/A   Clear
9:53 AM 25.0 °F - 19.0 °F 78% 30.13 in 10.0 mi Calm Calm - N/A   Overcast
10:53 AM 28.0 °F 22.8 °F 19.0 °F 69% 30.14 in 10.0 mi NNW 4.6 mph - N/A   Partly Cloudy
11:53 AM 28.0 °F 22.8 °F 18.0 °F 66% 30.14 in 10.0 mi NW 4.6 mph - N/A   Clear
12:53 PM 30.2 °F 26.7 °F 17.6 °F 60% 30.01 in 10.0 mi NW 3.5 mph - N/A   Clear
1:53 PM 32.0 °F 27.5 °F 17.1 °F 54% 30.12 in 10.0 mi North 4.6 mph - N/A   Clear
2:53 PM 33.1 °F 30.0 °F 17.1 °F 52% 30.13 in 10.0 mi NNE 3.5 mph - N/A   Clear
3:53 PM 33.1 °F - 17.1 °F 52% 30.15 in 10.0 mi Calm Calm - N/A   Clear
4:53 PM 28.9 °F - 17.1 °F 61% 30.19 in 10.0 mi Calm Calm - N/A   Clear
5:53 PM 21.0 °F - 15.1 °F 78% 30.24 in 10.0 mi Calm Calm - N/A   Clear
6:53 PM 17.1 °F 11.7 °F 12.0 °F 81% 30.27 in 10.0 mi WNW 3.5 mph - N/A   Clear
7:53 PM 18.0 °F - 12.9 °F 81% 30.27 in 10.0 mi Calm Calm - N/A   Clear
8:53 PM 18.0 °F - 12.9 °F 81% 30.27 in 10.0 mi Calm Calm - N/A   Clear
9:53 PM 18.0 °F 11.1 °F 12.9 °F 81% 30.26 in 10.0 mi West 4.6 mph - N/A   Clear
10:53 PM 12.9 °F 5.2 °F 9.0 °F 84% 30.26 in 10.0 mi WSW 4.6 mph - N/A   Clear
11:53 PM 16.0 °F 6.3 °F 10.0 °F 77% 30.25 in 10.0 mi WSW 6.9 mph - N/A   Clear